DRK400 VQPR-VNKT

Flight info

Callsign DRK400
Flight time 0h 52m
Altitude 32000
Route DCT PRO G348 KIMTI KMTI1G
Aircraft A319/M-SDE3FGHIRWY/LB1

Departure

Time 2026-05-09 04:25
Airport Paro International Airport (VQPR)

Arrival

Time 2026-05-09 05:18
Airport Tribhuvan International Airport (VNKT)
Time Latitude Longitude Altitude Speed Heading
2026-05-09 03:54 27.40630 89.42104 7356 ft 0 kts 241°
2026-05-09 04:06 27.40632 89.42108 7356 ft 2 kts 241°
2026-05-09 04:07 27.40639 89.42123 7356 ft 2 kts 241°
2026-05-09 04:07 27.40647 89.42138 7358 ft 2 kts 222°
2026-05-09 04:07 27.40659 89.42147 7357 ft 2 kts 189°
2026-05-09 04:07 27.40674 89.42146 7357 ft 2 kts 155°
2026-05-09 04:08 27.40686 89.42140 7360 ft 0 kts 154°
2026-05-09 04:09 27.40685 89.42140 7360 ft 1 kts 154°
2026-05-09 04:10 27.40675 89.42146 7357 ft 3 kts 154°
2026-05-09 04:10 27.40650 89.42159 7356 ft 5 kts 154°
2026-05-09 04:10 27.40613 89.42182 7355 ft 7 kts 150°
2026-05-09 04:10 27.40564 89.42214 7353 ft 9 kts 150°
2026-05-09 04:11 27.40502 89.42254 7351 ft 11 kts 149°
2026-05-09 04:11 27.40430 89.42302 7349 ft 13 kts 149°
2026-05-09 04:11 27.40347 89.42354 7346 ft 15 kts 151°
2026-05-09 04:11 27.40251 89.42414 7342 ft 17 kts 150°
2026-05-09 04:12 27.40147 89.42480 7339 ft 18 kts 150°
2026-05-09 04:12 27.40032 89.42553 7335 ft 20 kts 150°
2026-05-09 04:12 27.39905 89.42633 7331 ft 21 kts 150°
2026-05-09 04:12 27.39812 89.42693 7328 ft 15 kts 149°
2026-05-09 04:13 27.39718 89.42753 7323 ft 16 kts 150°
2026-05-09 04:13 27.39615 89.42818 7322 ft 18 kts 150°
2026-05-09 04:13 27.39521 89.42878 7320 ft 10 kts 150°
2026-05-09 04:13 27.39491 89.42897 7318 ft 0 kts 150°
2026-05-09 04:14 27.39482 89.42903 7318 ft 3 kts 150°
2026-05-09 04:14 27.39471 89.42910 7317 ft 1 kts 150°
2026-05-09 04:14 27.39464 89.42915 7317 ft 0 kts 150°
2026-05-09 04:23 27.39458 89.42918 7317 ft 2 kts 150°
2026-05-09 04:23 27.39438 89.42931 7316 ft 4 kts 150°
2026-05-09 04:23 27.39418 89.42964 7315 ft 6 kts 95°
2026-05-09 04:24 27.39436 89.43012 7314 ft 6 kts 60°
2026-05-09 04:24 27.39463 89.43020 7315 ft 3 kts 336°
2026-05-09 04:24 27.39468 89.43018 7315 ft 0 kts 332°
2026-05-09 04:25 27.39579 89.42946 7320 ft 54 kts 330°
2026-05-09 04:25 27.40129 89.42597 7336 ft 125 kts 330°
2026-05-09 04:25 27.41019 89.42020 7605 ft 155 kts 331°
2026-05-09 04:25 27.41998 89.41549 8304 ft 158 kts 343°
2026-05-09 04:26 27.43053 89.41107 8887 ft 161 kts 321°
2026-05-09 04:26 27.43696 89.40120 9397 ft 159 kts 290°
2026-05-09 04:26 27.44107 89.38944 9817 ft 167 kts 293°
2026-05-09 04:26 27.44695 89.37714 10052 ft 189 kts 294°
2026-05-09 04:27 27.45278 89.36288 10320 ft 212 kts 294°
2026-05-09 04:27 27.45974 89.34771 10725 ft 224 kts 306°
2026-05-09 04:27 27.47029 89.33473 11330 ft 226 kts 318°
2026-05-09 04:27 27.48390 89.32582 11909 ft 227 kts 337°
2026-05-09 04:28 27.49903 89.32043 12416 ft 229 kts 345°
2026-05-09 04:28 27.51454 89.31590 12886 ft 231 kts 346°
2026-05-09 04:28 27.52997 89.31127 13371 ft 234 kts 343°
2026-05-09 04:28 27.54514 89.30450 13911 ft 236 kts 335°
2026-05-09 04:29 27.56007 89.29670 14439 ft 237 kts 333°
2026-05-09 04:29 27.57456 89.28771 14919 ft 239 kts 328°
2026-05-09 04:29 27.58888 89.27805 15426 ft 241 kts 327°
2026-05-09 04:29 27.60333 89.26835 15953 ft 243 kts 327°
2026-05-09 04:30 27.61792 89.25865 16477 ft 244 kts 326°
2026-05-09 04:30 27.62995 89.24550 16903 ft 243 kts 297°
2026-05-09 04:30 27.63426 89.22747 17323 ft 239 kts 266°
2026-05-09 04:30 27.62954 89.20983 17796 ft 238 kts 235°
2026-05-09 04:31 27.61739 89.19727 17996 ft 239 kts 206°
2026-05-09 04:31 27.60102 89.19412 18475 ft 244 kts 175°
2026-05-09 04:31 27.58441 89.19833 18971 ft 245 kts 167°
2026-05-09 04:31 27.56791 89.20377 19353 ft 252 kts 166°
2026-05-09 04:32 27.55627 89.20769 19424 ft 265 kts 166°
2026-05-09 04:32 27.53821 89.21373 19501 ft 285 kts 166°
2026-05-09 04:32 27.51142 89.22266 19675 ft 315 kts 166°
2026-05-09 04:32 27.49713 89.22741 19759 ft 330 kts 166°
2026-05-09 04:33 27.47436 89.23497 19882 ft 352 kts 166°
2026-05-09 04:33 27.45080 89.24282 20573 ft 350 kts 166°
2026-05-09 04:33 27.42754 89.25071 21328 ft 349 kts 166°
2026-05-09 04:33 27.40417 89.25880 21828 ft 357 kts 166°
2026-05-09 04:34 27.37988 89.26716 21949 ft 374 kts 166°
2026-05-09 04:34 27.35449 89.27590 22097 ft 388 kts 166°
2026-05-09 04:34 27.32837 89.28491 22446 ft 396 kts 166°
2026-05-09 04:34 27.30155 89.29212 22912 ft 397 kts 175°
2026-05-09 04:35 27.27414 89.29330 23437 ft 394 kts 187°
2026-05-09 04:35 27.24708 89.28858 23928 ft 393 kts 197°
2026-05-09 04:35 27.22138 89.27846 24354 ft 392 kts 207°
2026-05-09 04:35 27.19776 89.26335 24803 ft 391 kts 217°
2026-05-09 04:36 27.17699 89.24363 25261 ft 391 kts 227°
2026-05-09 04:36 27.15991 89.21991 25706 ft 391 kts 237°
2026-05-09 04:36 27.14626 89.19352 26113 ft 392 kts 240°
2026-05-09 04:36 27.13297 89.16671 26554 ft 394 kts 240°
2026-05-09 04:37 27.11958 89.13978 27022 ft 395 kts 240°
2026-05-09 04:37 27.10617 89.11290 27526 ft 396 kts 240°
2026-05-09 04:37 27.09269 89.08590 27932 ft 398 kts 240°
2026-05-09 04:37 27.07913 89.05874 28342 ft 399 kts 240°
2026-05-09 04:38 27.06554 89.03148 28786 ft 401 kts 240°
2026-05-09 04:38 27.05191 89.00410 29206 ft 403 kts 240°
2026-05-09 04:38 27.03821 88.97661 29609 ft 404 kts 240°
2026-05-09 04:38 27.02445 88.94902 30015 ft 406 kts 240°
2026-05-09 04:39 27.01064 88.92137 30380 ft 407 kts 240°
2026-05-09 04:39 26.99677 88.89362 30696 ft 408 kts 240°
2026-05-09 04:39 26.98287 88.86582 31024 ft 409 kts 240°
2026-05-09 04:39 26.96868 88.83814 31349 ft 410 kts 239°
2026-05-09 04:40 26.95406 88.81080 31664 ft 410 kts 239°
2026-05-09 04:40 26.93911 88.78361 31986 ft 409 kts 238°
2026-05-09 04:40 26.92416 88.75669 32059 ft 402 kts 238°
2026-05-09 04:40 26.90970 88.73067 32062 ft 386 kts 238°
2026-05-09 04:41 26.89569 88.70532 32050 ft 380 kts 238°
2026-05-09 04:41 26.86819 88.65507 32032 ft 377 kts 239°
2026-05-09 04:42 26.84095 88.60502 32011 ft 376 kts 239°
2026-05-09 04:42 26.81364 88.55497 31994 ft 376 kts 239°
2026-05-09 04:43 26.78635 88.50499 31981 ft 376 kts 238°
2026-05-09 04:43 26.75910 88.45523 31970 ft 375 kts 238°
2026-05-09 04:44 26.73181 88.40549 31964 ft 375 kts 238°
2026-05-09 04:44 26.70883 88.35337 31962 ft 377 kts 255°
2026-05-09 04:44 26.70593 88.32412 31963 ft 382 kts 268°
2026-05-09 04:45 26.71003 88.29451 31962 ft 391 kts 281°
2026-05-09 04:45 26.72126 88.26641 31962 ft 402 kts 294°
2026-05-09 04:45 26.73595 88.23977 31960 ft 403 kts 295°
2026-05-09 04:46 26.76533 88.18683 31963 ft 403 kts 294°
2026-05-09 04:46 26.79502 88.13353 31967 ft 403 kts 295°
2026-05-09 04:47 26.82502 88.08038 31979 ft 403 kts 295°
2026-05-09 04:47 26.85501 88.02719 32004 ft 405 kts 295°
2026-05-09 04:48 26.88485 87.97379 32026 ft 405 kts 295°
2026-05-09 04:48 26.91486 87.91990 32039 ft 405 kts 295°
2026-05-09 04:49 26.94468 87.86640 32049 ft 404 kts 295°
2026-05-09 04:49 26.97448 87.81304 32053 ft 404 kts 295°
2026-05-09 04:50 27.00436 87.75952 32063 ft 404 kts 295°
2026-05-09 04:50 27.03400 87.70634 32068 ft 405 kts 295°
2026-05-09 04:51 27.06376 87.65271 32069 ft 405 kts 295°
2026-05-09 04:51 27.09347 87.59916 32078 ft 404 kts 295°
2026-05-09 04:52 27.12315 87.54566 32080 ft 403 kts 294°
2026-05-09 04:52 27.15285 87.49203 32096 ft 405 kts 295°
2026-05-09 04:53 27.18258 87.43824 32104 ft 405 kts 295°
2026-05-09 04:53 27.21220 87.38445 32117 ft 404 kts 295°
2026-05-09 04:54 27.24187 87.33078 32118 ft 404 kts 295°
2026-05-09 04:54 27.27154 87.27700 32131 ft 405 kts 295°
2026-05-09 04:55 27.30112 87.22325 32135 ft 404 kts 295°
2026-05-09 04:55 27.32217 87.16657 32144 ft 391 kts 277°
2026-05-09 04:56 27.33378 87.10694 32139 ft 390 kts 277°
2026-05-09 04:56 27.34554 87.04720 32128 ft 390 kts 277°
2026-05-09 04:57 27.35733 86.98769 32142 ft 390 kts 278°
2026-05-09 04:57 27.36907 86.92820 32164 ft 391 kts 277°
2026-05-09 04:58 27.38082 86.86822 32185 ft 392 kts 277°
2026-05-09 04:58 27.39250 86.80830 32194 ft 392 kts 277°
2026-05-09 04:59 27.40406 86.74842 32196 ft 391 kts 278°
2026-05-09 04:59 27.41564 86.68863 31861 ft 390 kts 278°
2026-05-09 04:59 27.42140 86.65902 31333 ft 385 kts 278°
2026-05-09 05:00 27.42709 86.62972 30819 ft 382 kts 278°
2026-05-09 05:00 27.43273 86.60063 30335 ft 380 kts 279°
2026-05-09 05:00 27.43834 86.57167 29783 ft 377 kts 279°
2026-05-09 05:00 27.44393 86.54299 29291 ft 372 kts 279°
2026-05-09 05:01 27.44943 86.51471 28820 ft 368 kts 279°
2026-05-09 05:01 27.45487 86.48664 28343 ft 365 kts 279°
2026-05-09 05:01 27.46024 86.45877 27869 ft 363 kts 279°
2026-05-09 05:01 27.46555 86.43103 27418 ft 362 kts 279°
2026-05-09 05:02 27.47083 86.40337 26968 ft 360 kts 279°
2026-05-09 05:02 27.47607 86.37584 26529 ft 359 kts 279°
2026-05-09 05:02 27.48127 86.34849 26099 ft 357 kts 279°
2026-05-09 05:02 27.48649 86.32121 25669 ft 355 kts 279°
2026-05-09 05:03 27.49169 86.29406 25252 ft 354 kts 279°
2026-05-09 05:03 27.49682 86.26702 24821 ft 351 kts 278°
2026-05-09 05:03 27.50099 86.24031 24403 ft 349 kts 276°
2026-05-09 05:03 27.50433 86.21333 23962 ft 347 kts 275°
2026-05-09 05:04 27.50726 86.18636 23487 ft 346 kts 275°
2026-05-09 05:04 27.51009 86.15931 23032 ft 350 kts 276°
2026-05-09 05:04 27.51302 86.13202 22590 ft 351 kts 277°
2026-05-09 05:04 27.51605 86.10476 22145 ft 350 kts 277°
2026-05-09 05:05 27.51918 86.07762 21704 ft 349 kts 277°
2026-05-09 05:05 27.52238 86.05055 21257 ft 347 kts 277°
2026-05-09 05:05 27.52558 86.02364 20822 ft 346 kts 277°
2026-05-09 05:05 27.52878 85.99681 20363 ft 345 kts 277°
2026-05-09 05:06 27.53197 85.97001 19924 ft 345 kts 277°
2026-05-09 05:06 27.53511 85.94322 19485 ft 345 kts 277°
2026-05-09 05:06 27.53822 85.91644 19042 ft 345 kts 277°
2026-05-09 05:06 27.54134 85.88973 18725 ft 341 kts 277°
2026-05-09 05:07 27.54442 85.86348 18511 ft 335 kts 276°
2026-05-09 05:07 27.54876 85.83782 18401 ft 334 kts 285°
2026-05-09 05:07 27.55565 85.81250 17791 ft 340 kts 286°
2026-05-09 05:07 27.56267 85.78733 17496 ft 335 kts 287°
2026-05-09 05:08 27.56970 85.76234 16970 ft 333 kts 287°
2026-05-09 05:08 27.57668 85.73753 16451 ft 332 kts 287°
2026-05-09 05:08 27.58361 85.71275 15953 ft 331 kts 287°
2026-05-09 05:08 27.59048 85.68812 15434 ft 328 kts 287°
2026-05-09 05:09 27.59731 85.66368 14858 ft 326 kts 287°
2026-05-09 05:09 27.60409 85.63939 14299 ft 324 kts 287°
2026-05-09 05:09 27.61079 85.61527 13730 ft 321 kts 287°
2026-05-09 05:09 27.61742 85.59135 13108 ft 319 kts 287°
2026-05-09 05:10 27.62398 85.56757 12516 ft 316 kts 287°
2026-05-09 05:10 27.63050 85.54391 11919 ft 314 kts 287°
2026-05-09 05:10 27.63698 85.52047 11326 ft 312 kts 287°
2026-05-09 05:10 27.64342 85.49720 10749 ft 310 kts 287°
2026-05-09 05:11 27.65002 85.47408 10141 ft 309 kts 290°
2026-05-09 05:11 27.65868 85.45197 9502 ft 307 kts 297°
2026-05-09 05:11 27.66870 85.43069 8864 ft 305 kts 298°
2026-05-09 05:11 27.67837 85.41016 8664 ft 287 kts 298°
2026-05-09 05:12 27.68739 85.39096 8540 ft 267 kts 298°
2026-05-09 05:12 27.69580 85.37304 8431 ft 250 kts 298°
2026-05-09 05:12 27.70365 85.35628 8318 ft 233 kts 297°
2026-05-09 05:12 27.71093 85.34074 8283 ft 216 kts 298°
2026-05-09 05:13 27.71781 85.32608 8128 ft 206 kts 297°
2026-05-09 05:13 27.72218 85.31098 7870 ft 202 kts 276°
2026-05-09 05:13 27.72147 85.29548 7563 ft 195 kts 256°
2026-05-09 05:13 27.71624 85.28169 7312 ft 190 kts 235°
2026-05-09 05:14 27.70741 85.27080 7079 ft 187 kts 216°
2026-05-09 05:14 27.69612 85.26378 6851 ft 185 kts 198°
2026-05-09 05:14 27.68788 85.26159 6703 ft 183 kts 185°
2026-05-09 05:14 27.67112 85.26336 6392 ft 181 kts 161°
2026-05-09 05:15 27.66355 85.26718 6241 ft 180 kts 149°
2026-05-09 05:15 27.65389 85.27611 6009 ft 180 kts 131°
2026-05-09 05:15 27.64720 85.28798 5783 ft 180 kts 113°
2026-05-09 05:15 27.64422 85.30130 5566 ft 170 kts 95°
2026-05-09 05:16 27.64488 85.31419 5349 ft 160 kts 78°
2026-05-09 05:16 27.65023 85.32907 5075 ft 152 kts 57°
2026-05-09 05:16 27.65452 85.33540 4955 ft 150 kts 47°
2026-05-09 05:16 27.66237 85.34284 4772 ft 149 kts 33°
2026-05-09 05:17 27.67175 85.34794 4580 ft 148 kts 19°
2026-05-09 05:17 27.68130 85.35220 4439 ft 147 kts 22°
2026-05-09 05:17 27.69035 85.35628 4391 ft 127 kts 22°
2026-05-09 05:17 27.69682 85.35923 4396 ft 69 kts 23°
2026-05-09 05:18 27.69827 85.35992 4396 ft 4 kts 22°
2026-05-09 05:18 27.69848 85.36002 4396 ft 3 kts 20°
2026-05-09 05:18 27.69874 85.36003 4396 ft 4 kts 348°
2026-05-09 05:18 27.69899 85.35980 4396 ft 5 kts 307°
2026-05-09 05:19 27.69909 85.35957 4397 ft 1 kts 296°
2026-05-09 05:19 27.69912 85.35952 4397 ft 1 kts 301°
2026-05-09 05:19 27.69921 85.35937 4397 ft 4 kts 309°
2026-05-09 05:19 27.69943 85.35918 4397 ft 4 kts 324°
2026-05-09 05:20 27.69964 85.35898 4397 ft 4 kts 310°
2026-05-09 05:20 27.69980 85.35861 4398 ft 6 kts 293°
2026-05-09 05:20 27.69988 85.35838 4398 ft 0 kts 291°